Location: Arbon
(43.0005°N, 0.7472°E)
Time: 11:15:23
(UTC+00:00)

SJ 16-02 - Pass Details

Date: 22 April 2026
Orbit: 582 x 592 km, 75.0° (Epoch: 15 May)

Event Time Altitude Azimuth Distance (km) Brightness Sun altitude
Rises 23:13:59 0° 329° (NNW) 2,818 5.7 -33.7°
Reaches altitude 10° 23:16:29 10° 316° (NW) 1,911 4.5 -33.8°
Enters shadow 23:17:19 14° 308° (NW) 1,650 4.0 -33.9°
